Showing default

TJS-22, 66990

Orbit data source: Space-Track

TJS-22, 66990 is a Chinese payload satellite in GEO that was launched on Tue, 09 Dec 2025 UTC via a CHANG ZHENG 3B launch vehicle from the Xichang Space Center, China (XSC). Payload-class satellites include a variety of spacecraft equipped with specific instruments for various scientific and technological missions. These include communications satellites like Starlink; space stations such as the ISS; scientific satellites like the Hubble; Earth observation satellites from companies like Planet Labs, Umbra, and HawkEye 360; GPS; miniature CubeSats for education and research; and military/defense satellites.

Not visible in the next 10 days
Identifier
66990, 2025-290A
Orbit
GEO
Country
Flag of CNCN / PRC
Related business
Manufacturer
SAST
Mission
Operational Defense Sigint
Bus & Motor
TJSXX, Unknown motor
Mass
~5,000 kg wet, ~6,000 kg dry
Launch date (UTC)
2025-12-09 (7 months ago)
Launch vehicle
CHANG ZHENG 3B
Launch site
Xichang Space Center, China (XSC)
Object type
Payload
Rocket body
Debris
Shape & HBR
Box + 2 Pan + 1 Dish, 22.5 m
Radar Cross Section
55.841 m², Large (>1 m²)

Expand to show TLE details & history
Last TLE update: 2 days ago

TLE from 2 days ago
0 TJS-22
1 66990U 25290A   26193.80754925 -.00000005  00000-0  00000+0 0  9994
2 66990   1.4677 286.9097 0002691 318.9700  42.0235  1.00269739  2289
Epoch: 2026-07-12T19:22Z
TLE epoch observation values (Epoch: 2026-07-12T19:22:52.255Z)
Latitude
Longitude
66.51317°
Altitude
35,778.186 km
Speed
3.075 km/s
True Right ascension
19h 11m 43s
True Declination
0° 00' 00"
Sunlit
Object was in daylight at epoch
Visualization orbit readout
Latitude
Unknown
Longitude
Unknown
Altitude
Unknown
Speed
Unknown
Apparent Right ascension
Unknown
Apparent Declination
Unknown
Sunlit
N/A
Visualization observer readout
Local Sidereal Time
04:20:14
Azimuth
Unknown
Elevation
Unknown
Doppler factor
Unknown
Orbital elements
Apogee altitude
35,799.585 km
Perigee altitude
35,776.891 km
Semi-major axis
42,166.375 km
Eccentricity
0.00027
Inclination
1.4677°
RAAN
286.9097°
Arg. of periapsis
318.97°
True anomaly
42.04415°
Mean anomaly
42.0235°
Eccentric anomaly
42.03382°
Mean motion
0.25067 °/min
Orbital period
1,436.18 mins
BSTAR
0
Loading maneuver chart data...
Computing Atmospheric mass density...
Loading historical data...
Loading historical data...
Loading historical data...
Loading historical data...
Loading historical data...
Loading historical data...
Loading historical data...
Other satellites on launch #290 in the year 2025 (2025-12-09 UTC)

Documentation

Showing up to 5 results
|